Location: Ecklingerode
(51.5036°N, 10.3122°E)
Time: 00:24:32
(UTC+00:00)

Meteor 2-1 Rocket - Pass Details

Date: 29 October 2020
Orbit: 830 x 906 km, 81.3° (Epoch: 23 November)

Event Time Altitude Azimuth Distance (km) Brightness Sun altitude
Rises 17:21:13 0° 170° (S) 3,364 7.3 -13.6°
Reaches altitude 10° 17:23:42 10° 164° (SSE) 2,433 6.5 -14.0°
Maximum altitude 17:28:53 45° 93° (E) 1,132 4.4 -14.8°
Drops below altitude 10° 17:34:07 10° 23° (NNE) 2,461 6.4 -15.6°
Sets 17:36:38 0° 17° (NNE) 3,407 7.2 -16.0°
